Weather History for Springfield, VT

Change the Weather History Date:

Thursday, September 12, 2013

  Actual Average Record
Temperature  
Mean Temperature 72 °F 61 °F  
Max Temperature 79 °F 73 °F 86 °F (2005)
Min Temperature 64 °F 49 °F 37 °F (2006)
Degree Days  
Heating Degree Days 0 5  
Month to date heating degree days 59 43  
Since 1 July heating degree days 104 98  
Cooling Degree Days 7 1  
Month to date cooling degree days 42 18  
Year to date cooling degree days 495 339  
Growing Degree Days 20 (Base 50)    
Moisture  
Dew Point 67 °F    
Average Humidity 88    
Maximum Humidity 100    
Minimum Humidity 76    
Precipitation  
Precipitation 0.67 in 0.13 in 0.67 in (2013)
Month to date precipitation 2.05 1.27  
Year to date precipitation 29.53 29.64  
Sea Level Pressure  
Sea Level Pressure 29.80 in    
Wind  
Wind Speed 2 mph (South)    
Max Wind Speed 14 mph    
Max Gust Speed 22 mph    
Visibility 6 miles    
Events Rain , Thunderstorm    
T = Trace of Precipitation, MM = Missing Value Source: NWS Daily Summary

Daily Weather History Graph

Daily Weather History Graph

Search for Another Location

Airport:

Trip Planner

Search our weather history database for the weather conditions in past years. The results will help you decide how hot, cold, wet, or windy it might be!

Date:

Astronomy

Sep. 12, 2013 Rise Set
Actual Time 6:26 AM EDT 7:05 PM EDT
Civil Twilight 5:57 AM EDT 7:33 PM EDT
Nautical Twilight 5:23 AM EDT 8:07 PM EDT
Astronomical Twilight 4:48 AM EDT 8:43 PM EDT
Moon 2:02 PM EDT (9/12) 11:46 PM EDT (9/12)
Length of Visible Light 13h 36m
Length of Day
12h 38m
Waxing Crescent, 50% of the Moon is Illuminated
Sep 12
Waxing Crescent
Sep 12
First Quarter
Sep 19
Full
Sep 26
Last Quarter
Oct 4
New

Hourly Weather History & Observations

Time (EDT) Temp. Dew Point Humidity Pressure Visibility Wind Dir Wind Speed Gust Speed Precip Events Conditions
12:54 AM 68.0 °F 66.0 °F 93% 29.93 in 10.0 mi Calm Calm - N/A   Scattered Clouds
1:54 AM 66.9 °F 66.0 °F 97% 29.91 in 8.0 mi Calm Calm - N/A   Partly Cloudy
2:54 AM 66.9 °F 66.0 °F 97% 29.92 in 8.0 mi Calm Calm - N/A   Scattered Clouds
3:54 AM 66.0 °F 66.0 °F 100% 29.93 in 9.0 mi Calm Calm - N/A   Clear
4:54 AM 66.0 °F 64.9 °F 96% 29.92 in 9.0 mi Calm Calm - N/A   Clear
5:37 AM 64.4 °F 64.4 °F 100% 29.92 in 2.5 mi Calm Calm - N/A   Mostly Cloudy
5:43 AM 64.4 °F 64.4 °F 100% 29.92 in 0.8 mi Calm Calm - N/A   Overcast
5:54 AM 64.9 °F 64.0 °F 97% 29.91 in 0.8 mi Calm Calm - N/A   Mostly Cloudy
5:59 AM 64.4 °F 64.4 °F 100% 29.92 in 2.0 mi Calm Calm - N/A   Mostly Cloudy
6:04 AM 64.4 °F 64.4 °F 100% 29.92 in 3.0 mi Calm Calm - N/A   Mostly Cloudy
6:54 AM 64.9 °F 64.9 °F 100% 29.92 in 4.0 mi Calm Calm - 0.01 in Rain Light Rain
7:05 AM 64.4 °F 64.4 °F 100% 29.93 in 2.0 mi Calm Calm - 0.02 in Rain Rain
7:18 AM 64.4 °F 64.4 °F 100% 29.92 in 3.0 mi Calm Calm - 0.03 in Rain Light Rain
7:27 AM 64.4 °F 64.4 °F 100% 29.92 in 3.0 mi Calm Calm - 0.03 in   Overcast
7:54 AM 66.0 °F 64.9 °F 96% 29.90 in 3.0 mi Calm Calm - 0.04 in Rain Light Rain
8:19 AM 66.2 °F 64.4 °F 94% 29.90 in 4.0 mi Calm Calm - 0.00 in Rain , Thunderstorm Light Rain
8:26 AM 66.2 °F 66.2 °F 100% 29.89 in 4.0 mi Calm Calm - 0.00 in Rain , Thunderstorm Light Rain
8:54 AM 66.9 °F 66.0 °F 97% 29.88 in 8.0 mi West 3.5 mph - 0.01 in   Mostly Cloudy
9:01 AM 66.2 °F 66.2 °F 100% 29.89 in 9.0 mi Calm Calm - N/A Thunderstorm Overcast
9:16 AM 66.2 °F 66.2 °F 100% 29.88 in 10.0 mi Calm Calm - N/A   Overcast
9:54 AM 68.0 °F 66.0 °F 93% 29.87 in 10.0 mi West 3.5 mph - N/A   Mostly Cloudy
10:54 AM 71.1 °F 68.0 °F 90% 29.83 in 10.0 mi Calm Calm - N/A   Partly Cloudy
11:04 AM 71.6 °F 68.0 °F 88% 29.84 in 10.0 mi Calm Calm - N/A   Scattered Clouds
11:13 AM 71.6 °F 68.0 °F 88% 29.83 in 10.0 mi Calm Calm - N/A   Mostly Cloudy
11:32 AM 73.4 °F 69.8 °F 88% 29.83 in 10.0 mi SE 5.8 mph - N/A   Mostly Cloudy
11:54 AM 73.9 °F 69.1 °F 85% 29.83 in 10.0 mi South 4.6 mph - N/A   Mostly Cloudy
12:54 PM 75.9 °F 70.0 °F 82% 29.79 in 10.0 mi SSE 6.9 mph - N/A   Partly Cloudy
1:54 PM 77.0 °F 71.1 °F 82% 29.77 in 10.0 mi Variable 3.5 mph - N/A   Mostly Cloudy
2:54 PM 77.0 °F 70.0 °F 79% 29.73 in 10.0 mi SE 8.1 mph - N/A   Partly Cloudy
3:32 PM 73.4 °F 69.8 °F 88% 29.73 in 9.0 mi SSE 8.1 mph - N/A Thunderstorm Thunderstorm
3:47 PM 73.4 °F 69.8 °F 88% 29.74 in 6.0 mi SE 10.4 mph - 0.00 in Rain Light Rain
3:54 PM 72.0 °F 70.0 °F 93% 29.72 in 5.0 mi SE 4.6 mph - 0.00 in Rain , Thunderstorm Light Thunderstorms and Rain
4:12 PM 71.6 °F 69.8 °F 94% 29.73 in 3.0 mi SE 6.9 mph - 0.03 in Rain , Thunderstorm Thunderstorms and Rain
4:20 PM 69.8 °F 69.8 °F 100% 29.73 in 4.0 mi SSE 13.8 mph 21.9 mph 0.04 in Rain , Thunderstorm Light Rain
4:25 PM 69.8 °F 69.8 °F 100% 29.74 in 5.0 mi South 10.4 mph 21.9 mph 0.04 in Rain , Thunderstorm Light Rain
4:33 PM 69.8 °F 69.8 °F 100% 29.73 in 6.0 mi Variable 3.5 mph 17.3 mph 0.05 in Rain , Thunderstorm Light Rain
4:38 PM 69.8 °F 68.0 °F 94% 29.72 in 5.0 mi Variable 4.6 mph - 0.05 in Rain , Thunderstorm Light Rain
4:44 PM 69.8 °F 68.0 °F 94% 29.72 in 7.0 mi Calm Calm - 0.05 in Rain , Thunderstorm Light Rain
4:54 PM 69.1 °F 68.0 °F 96% 29.72 in 8.0 mi South 3.5 mph - 0.05 in Rain , Thunderstorm Light Rain
5:10 PM 69.8 °F 66.2 °F 88% 29.76 in 1.8 mi West 8.1 mph 20.7 mph 0.10 in Rain , Thunderstorm Heavy Thunderstorms and Rain
5:28 PM 66.2 °F 64.4 °F 94% 29.74 in 3.0 mi Calm Calm - 0.25 in Rain , Thunderstorm Light Rain
5:39 PM 66.2 °F 64.4 °F 94% 29.73 in 6.0 mi Calm Calm - 0.26 in Rain Light Rain
5:54 PM 66.9 °F 64.9 °F 93% 29.71 in 8.0 mi North 3.5 mph - 0.28 in Rain Light Rain
6:17 PM 66.2 °F 64.4 °F 94% 29.72 in 5.0 mi Calm Calm - 0.02 in Rain Light Rain
6:31 PM 66.2 °F 66.2 °F 100% 29.71 in 6.0 mi Calm Calm - 0.03 in Rain Light Rain
6:44 PM 66.2 °F 66.2 °F 100% 29.71 in 7.0 mi South 3.5 mph - 0.03 in Rain Light Rain
6:52 PM 66.2 °F 64.4 °F 94% 29.72 in 7.0 mi SSW 3.5 mph - 0.04 in Rain Light Rain
6:54 PM 66.0 °F 64.9 °F 96% 29.72 in 7.0 mi Calm Calm - 0.04 in Rain Light Rain
7:18 PM 66.2 °F 64.4 °F 94% 29.72 in 9.0 mi Calm Calm - 0.00 in Rain Light Rain
7:54 PM 66.0 °F 66.0 °F 100% 29.74 in 4.0 mi Calm Calm - 0.03 in Rain Rain
8:15 PM 66.2 °F 66.2 °F 100% 29.72 in 4.0 mi North 3.5 mph - 0.07 in Rain Rain
8:54 PM 66.0 °F 66.0 °F 100% 29.71 in 4.0 mi Calm Calm - 0.08 in Rain Light Rain
9:03 PM 66.2 °F 66.2 °F 100% 29.71 in 5.0 mi Calm Calm - 0.00 in Rain Light Rain
9:22 PM 66.2 °F 66.2 °F 100% 29.71 in 7.0 mi Calm Calm - 0.00 in   Overcast
9:54 PM 66.0 °F 66.0 °F 100% 29.70 in 5.0 mi Calm Calm - 0.01 in Rain Light Rain
10:54 PM 66.0 °F 66.0 °F 100% 29.69 in 3.0 mi Calm Calm - 0.09 in Rain Light Rain
11:54 PM 66.0 °F 64.9 °F 96% 29.67 in 5.0 mi Calm Calm - 0.03 in   Overcast